Alameda, CA

6:51 PM PST on February 22, 2017 (GMT -0800)
Metro Oakland International

Weather History for KOAK - November, 2011

Change the Weather History Date:

Friday, November 4, 2011

  Actual Average Record
Temperature  
Mean Temperature 55 °F 57 °F  
Max Temperature 63 °F 66 °F 81 °F (2010)
Min Temperature 47 °F 48 °F 41 °F (2003)
Degree Days  
Heating Degree Days 10 8  
Month to date heating degree days 21 31  
Since 1 July heating degree days 380 383  
Cooling Degree Days 0 0  
Month to date cooling degree days 0 0  
Year to date cooling degree days 152 137  
Growing Degree Days 6 (Base 50)    
Moisture  
Dew Point 42 °F    
Average Humidity 57    
Maximum Humidity 74    
Minimum Humidity 39    
Precipitation  
Precipitation 0.10 in 0.07 in 0.34 in (1963)
Month to date precipitation 0.13 0.32  
Year to date precipitation 14.63 15.02  
Since 1 July precipitation 1.82  
Sea Level Pressure  
Sea Level Pressure 29.89 in    
Wind  
Wind Speed 7 mph (NW)    
Max Wind Speed 22 mph    
Max Gust Speed 25 mph    
Visibility 10 miles    
Events Rain    
T = Trace of Precipitation, MM = Missing Value Source: NWS Daily Summary

Daily Weather History Graph

Daily Weather History Graph

Search for Another Location

Airport or City:

Trip Planner

Search our weather history database for the weather conditions in past years. The results will help you decide how hot, cold, wet, or windy it might be!

Date:

Astronomy

Nov. 04, 2011 Rise Set
Actual Time 7:37 AM PDT 6:07 PM PDT
Civil Twilight 7:09 AM PDT 6:34 PM PDT
Nautical Twilight 6:38 AM PDT 7:05 PM PDT
Astronomical Twilight 6:07 AM PDT 7:36 PM PDT
Moon 2:56 PM PDT (11/4) 2:00 AM PDT (11/4)
Length of Visible Light 11h 24m
Length of Day
10h 30m
Waxing Gibbous, 70% of the Moon is Illuminated
Nov 4
Waxing Gibbous
Nov 10
Full
Nov 18
Last Quarter
Nov 24
New
Dec 2
First Quarter

Hourly Weather History & Observations

Time (PDT) Temp. Dew Point Humidity Pressure Visibility Wind Dir Wind Speed Gust Speed Precip Events Conditions
12:53 AM 55.4 °F 42.8 °F 63% 29.84 in 10.0 mi West 5.8 mph - N/A   Mostly Cloudy
1:53 AM 55.9 °F 42.1 °F 60% 29.84 in 10.0 mi WSW 12.7 mph - 0.00 in Rain Light Rain
2:53 AM 54.0 °F 42.1 °F 64% 29.84 in 10.0 mi Calm Calm - 0.05 in Rain Light Rain
3:53 AM 52.0 °F 44.1 °F 74% 29.84 in 10.0 mi ENE 3.5 mph - 0.00 in Rain Light Rain
4:53 AM 53.1 °F 44.1 °F 71% 29.83 in 10.0 mi ESE 5.8 mph - 0.05 in   Overcast
5:53 AM 50.0 °F 43.0 °F 77% 29.84 in 10.0 mi East 3.5 mph - N/A   Mostly Cloudy
6:53 AM 50.0 °F 43.0 °F 77% 29.85 in 10.0 mi East 5.8 mph - N/A   Mostly Cloudy
7:53 AM 48.9 °F 43.0 °F 80% 29.87 in 10.0 mi East 3.5 mph - 0.00 in Rain Light Rain
8:53 AM 52.0 °F 45.0 °F 77% 29.89 in 10.0 mi Calm Calm - 0.00 in   Mostly Cloudy
9:18 AM 51.8 °F 44.6 °F 76% 29.90 in 10.0 mi NE 3.5 mph - N/A   Mostly Cloudy
9:50 AM 53.6 °F 46.4 °F 77% 29.91 in 10.0 mi Calm Calm - N/A   Mostly Cloudy
9:53 AM 55.0 °F 46.0 °F 72% 29.91 in 10.0 mi Calm Calm - N/A   Mostly Cloudy
10:53 AM 55.0 °F 42.1 °F 62% 29.92 in 10.0 mi North 6.9 mph - N/A   Scattered Clouds
11:53 AM 57.9 °F 42.1 °F 56% 29.93 in 10.0 mi WNW 4.6 mph - N/A   Partly Cloudy
12:53 PM 59.0 °F 42.1 °F 53% 29.91 in 10.0 mi West 10.4 mph - N/A   Scattered Clouds
1:53 PM 61.0 °F 43.0 °F 52% 29.90 in 10.0 mi WNW 12.7 mph - N/A   Scattered Clouds
2:53 PM 62.1 °F 39.9 °F 44% 29.89 in 10.0 mi WNW 12.7 mph - N/A   Scattered Clouds
3:53 PM 63.0 °F 37.9 °F 40% 29.89 in 10.0 mi WNW 9.2 mph - N/A   Scattered Clouds
4:53 PM 61.0 °F 41.0 °F 48% 29.89 in 10.0 mi West 18.4 mph - N/A   Scattered Clouds
5:53 PM 59.0 °F 39.9 °F 49% 29.91 in 10.0 mi West 17.3 mph - N/A   Scattered Clouds
6:53 PM 57.9 °F 37.9 °F 47% 29.92 in 10.0 mi WNW 13.8 mph - N/A   Partly Cloudy
7:53 PM 57.0 °F 39.9 °F 53% 29.94 in 10.0 mi West 12.7 mph - N/A   Partly Cloudy
8:53 PM 55.0 °F 42.1 °F 62% 29.94 in 10.0 mi WNW 6.9 mph - N/A   Clear
9:53 PM 52.0 °F 39.0 °F 61% 29.94 in 10.0 mi Calm Calm - N/A   Clear
10:53 PM 50.0 °F 39.0 °F 66% 29.94 in 10.0 mi East 3.5 mph - N/A   Clear
11:53 PM 48.2 °F 39.2 °F 71% 29.95 in 10.0 mi Calm Calm - N/A   Partly Cloudy